Home   Weather   Valladolid   Past weeks

Flag for Spain Past Weather in Valladolid, Spain — Yesterday and Last 2 Weeks

Now
28 °F

Overcast.


Feels Like: 24 °F
Forecast: 29 / 45 °F
Wind: 3 mph from North

Location: Valladolid

Current Time: Jan 20, 2017 at 2:49:37 am

Latest Report: Jan 20, 2017 at 1:00 am


Visibility: 13 mi

Pressure: 30.24 "Hg (27.64 "Hg at 712m altitude)

Humidity: 82%

Dew Point: 23 °F

Location of ValladolidLocation

Past Weather in Valladolid — Graph

°F

Valladolid Temperature Yesterday

Maximum temperature yesterday: 44 °F (at 4:00 pm)
Minimum temperature yesterday: 21 °F (at 9:00 am)
Average temperature yesterday: 30 °F

High & Low Weather Summary for the Past Weeks

 TemperatureHumidityPressure
High56 °F (Jan 11, 4:00 pm)100% (Jan 5, 9:00 pm)30.60 "Hg (Jan 5, 9:00 pm)
Low21 °F (Jan 19, 9:00 am)25% (Jan 7, 4:00 pm)30.06 "Hg (Jan 10, 4:00 pm)
Average37 °F76%30.37 "Hg
* Reported Jan 5 2:00 am — Jan 20 1:00 am, Valladolid, Weather by CustomWeather, © 2017

Note: Actual official high and low records may vary slightly from our data, if they occured in-between our weather recording intervals... More about our weather records

Advertising

Valladolid Weather History for the Previous 24 Hours

Scroll right to see more
 ConditionsComfort  
Time TempWeatherWind HumidityBarometerVisibility
1:00 am
Fri, Jan 20
28 °FOvercast.3 mph82%30.24 "Hg12 mi
12:00 am29 °FChilly.2 mph79%30.25 "Hg12 mi
11:00 pm
Thu, Jan 19
29 °FChilly.2 mph76%30.24 "Hg12 mi
10:00 pm30 °FPassing clouds.2 mph72%30.24 "Hg12 mi
9:00 pm32 °FChilly.3 mph67%30.22 "Hg12 mi
8:00 pm35 °FChilly.3 mph61%30.19 "Hg12 mi
7:00 pm38 °FPassing clouds.6 mph52%30.16 "Hg19 mi
6:00 pm42 °FQuite cool.7 mph33%30.13 "Hg12 mi
5:00 pm42 °FQuite cool.7 mph34%30.11 "Hg12 mi
4:00 pm44 °FPassing clouds.8 mph35%30.11 "Hg19 mi
3:00 pm42 °FQuite cool.7 mph38%30.13 "Hg12 mi
2:00 pm40 °FQuite cool.7 mph43%30.16 "Hg12 mi
1:00 pm36 °FChilly.3 mph60%30.21 "Hg12 mi
12:00 pm29 °FChilly.2 mph75%30.27 "Hg12 mi
11:00 am27 °FChilly.3 mph81%30.29 "Hg12 mi
10:00 am23 °FPassing clouds.1 mph92%30.31 "Hg9 mi
9:00 am21 °FCold.1 mph92%30.32 "Hg9 mi
8:00 am21 °FCold.1 mph92%30.31 "Hg9 mi
7:00 am22 °FClear.1 mph89%30.30 "Hg12 mi
6:00 am22 °FCold.3 mph88%30.29 "Hg12 mi
5:00 am24 °FCold.2 mph86%30.30 "Hg12 mi
4:00 am25 °FClear.3 mph83%30.29 "Hg12 mi
3:00 am26 °FChilly.5 mph80%30.30 "Hg12 mi
2:00 am26 °FChilly.3 mph81%30.30 "Hg12 mi
Weather by CustomWeather, © 2017

See weather overviewHow to use our weather pages